Regional Weather Roundup
Issued by NWS

Home | Current Version | Previous Version | Text Only | Print | Product List | Glossary On
Versions: 1 2 3 4 5 6 7 8 9 10 11 12 13 14 15 16 17 18 19 20 21 22 23 24 25 26 27 28 29 30 31 32 33 34 35 36 37 38 39 40 41 42 43 44 45 46 47 48 49 50
000
ASCA44 KEWX 290120
RWRMX

LATIN AMERICA AND CARIBBEAN REGIONAL WEATHER ROUNDUP
NATIONAL WEATHER SERVICE AUSTIN/SAN ANTONIO TX
700 PM CST SUN DEC 28 2014

NOTE: "FAIR" INDICATED FEW OR NO CLOUDS BELOW 12,000 FEET WITH NO
SIGNIFICANT WEATHER AND/OR OBSTRUCTIONS TO VISIBILITY.

BAJA CALIFORNIA

CITY           SKY/WX    TMP DP  RH WIND       PRES   REMARKS
LORETO           N/A    N/A N/A N/A MISG        N/A
LA PAZ         CLEAR     66  45  45 NE14      30.07
MEXICALI       PTCLDY    55  12  18 W3        30.17
S.J. DEL CABO  CLEAR     66  48  52 NW12      30.03R
TIJUANA        MOCLDY    55  34  44 W8        30.20R

NORTHWESTERN MEXICO

CITY           SKY/WX    TMP DP  RH WIND       PRES   REMARKS
CULIACAN       CLEAR     72  57  60 NW6       29.98
DURANGO        CLEAR     59   7  12 E5        30.18R
GUAYMAS        CLEAR     70  19  14 CALM      30.01
HERMOSILLO     PTCLDY    63  21  20 CALM      30.10
CD. JUAREZ     PTCLDY    43  30  61 SW9       30.06  WCI  37
LOS MOCHIS       N/A    N/A N/A N/A MISG        N/A
OBREGON        PTCLDY    64  30  27 W7        30.00

NORTHEASTERN MEXICO

CITY           SKY/WX    TMP DP  RH WIND       PRES   REMARKS
CHIHUAHUA      PTCLDY    48  28  46 E13       30.13  WCI  43
MATAMOROS      CLOUDY    46  46 100 NW9       30.20  WCI  42
MONTERREY      CLEAR     50  46  87 SE6       30.15R WCI  48
NUEVO LAREDO   CLEAR     50  43  76 CALM      30.16
PIEDRAS NEGRAS CLEAR     55  32  41 CALM      30.16S
REYNOSA        PTCLDY    45  41  87 NW3       30.19
SALTILLO       CLEAR     52  43  71 CALM      30.21R
TORREON        CLEAR     57  32  38 CALM      30.13S
CD. VICTORIA   CLOUDY    50  46  87 NW2       30.18

WESTERN MEXICO

CITY           SKY/WX    TMP DP  RH WIND       PRES   REMARKS
AGUASCALIENTES PTCLDY    54  34  47 E5        30.23
COLIMA         MOCLDY    75  64  69 SW9       30.01
DEL BAJIO      MOCLDY    64  41  42 N5        30.26R
GUADALAJARA    MOCLDY    66  45  45 NW3       30.15
MANZANILLO     PTCLDY    79  68  69 W6        29.85S
MAZATLAN       CLEAR     66  54  63 W9        29.94R
P. VALLARTA    PTCLDY    75  66  73 S5        29.92R
URUAPAN        CLEAR     68  57  68 CALM      30.18
ZACATECAS      CLEAR     55  32  41 CALM      30.25R

CENTRAL MEXICO

CITY           SKY/WX    TMP DP  RH WIND       PRES   REMARKS
CUERNAVACA     PTCLDY    75  48  38 CALM      30.09
MEXICO CITY    PTCLDY    64  45  48 SE14      30.28R
MORELIA        PTCLDY    64  46  52 S8        30.19
POZA RICA      DRIZZLE   63  63 100 N9        30.16R FOG
PUEBLA         MOCLDY    55  45  67 S8        30.29R
QUERETARO      PTCLDY    63  36  36 CALM      30.25R
S. LUIS POTOSI PTCLDY    57  46  67 NE3       30.21R
TAMPICO        CLOUDY    59  52  77 NE9       30.15R
TOLUCA         PTCLDY    55  41  58 SE8       30.36R

SOUTHERN MEXICO

CITY           SKY/WX    TMP DP  RH WIND       PRES   REMARKS
ACAPULCO       PTCLDY    82  72  69 W7        29.87R
B. DE HUATULCO MOCLDY    75  68  78 CALM      29.94
OAXACA         CLEAR     72  39  30 SE10      30.17R
P. ESCONDIDO   PTCLDY    81  73  78 CALM      30.00S
VERACRUZ       MOCLDY    72  66  83 NW21      30.03R
ZIHUATANEJO    CLEAR     82  73  74 NE6       29.89R

YUCATAN PENINSULA

CITY           SKY/WX    TMP DP  RH WIND       PRES   REMARKS
CAMPECHE       MOCLDY    77  75  94 N12       29.96S
CANCUN         PTCLDY    79  73  83 E7        30.04S
CHETUMAL       MOCLDY    81  72  74 SE12      29.99R
CD. DEL CARMEN CLOUDY    77  73  88 NE10      29.99  HAZE
COZUMEL        PTCLDY    72  72 100 E8        30.04R
MERIDA         MOCLDY    75  73  94 CALM      30.01R
MINATITLAN     CLOUDY    75  68  78 N9        29.96
TAPACHULA      CLEAR     81  75  83 CALM      29.89R
TUX. GUTIERREZ PTCLDY    73  61  64 NW14      30.00R
VILLAHERMOSA   MOCLDY    72  68  88 SW6       30.01R HAZE

CENTRAL AMERICA

CITY           SKY/WX    TMP DP  RH WIND       PRES   REMARKS
MANAGUA        PTCLDY    82  73  74 SE7       29.89R

CARIBBEAN

CITY           SKY/WX    TMP DP  RH WIND       PRES   REMARKS
ARUBA          PTCLDY    81  73  78 NE16      29.92S
KINGSTON       PTCLDY    81  73  78 NW12      30.00R
NASSAU         PTCLDY    75  72  88 SE5       30.15R
SAN JUAN       PTCLDY    79  70  73 E6        30.07R
SANTO DOMINGO  MOCLDY    72  70  94 CALM      30.06R
ST. KITTS      PTCLDY    77  70  78 E13       30.06R
ST. MAARTEN    PTCLDY    77  72  83 E5        30.06R

$$




USA.gov is the U.S. government's official web portal to all federal, state and local government web resources and services.